Location: Altmatt
(47.1333°N, 8.7000°E)
Time: 03:00:15
(UTC+00:00)

Cosmos 1812 - Pass Details

Date: 13 July 2020
Orbit: 516 x 522 km, 82.5° (Epoch: 04 August)

Event Time Altitude Azimuth Distance (km) Brightness Sun altitude
Rises 23:42:44 0° 344° (NNW) 2,655 7.6 -21.2°
Reaches altitude 10° 23:44:57 10° 338° (NNW) 1,761 6.3 -21.2°
Maximum altitude 23:48:37 42° 267° (W) 750 3.4 -21.1°
Enters shadow 23:48:43 42° 262° (W) 752 3.3 -21.1°
